Miscellaneous Local Product
Issued by NWS Hastings, NE

Home | Current Version | Previous Version | Text Only | Print | Product List | Glossary On
Versions: 1 2 3 4 5 6 7 8 9 10 11 12 13 14 15 16 17 18 19 20 21 22 23 24 25 26 27 28 29 30 31 32 33 34 35 36 37 38 39 40 41 42 43 44 45 46 47 48 49 50
000
AXUS43 KGID 021302
MISGRI

GID CWA HOURLY WEATHER ROUNDUP
NATIONAL WEATHER SERVICE HASTINGS NE
800 AM CDT WED SEP 02 2015

NOTE: "FAIR" INDICATES FEW OR NO CLOUDS BELOW 12,000 FEET WITH NO
SIGNIFICANT WEATHER AND/OR OBSTRUCTIONS TO VISIBILITY.

...SOUTH CENTRAL NEBRASKA...

CITY           SKY/WX    TMP DP  RH WIND       PRES   REMARKS
GRAND ISLAND   SUNNY     68  62  81 S7        29.90R
HASTINGS       SUNNY     68  60  75 S7        29.91R
KEARNEY        CLEAR     63  57  82 S3        29.90R
ORD            CLEAR     62  59  90 CALM      29.88R
YORK           SUNNY     68  66  94 S8        29.90R
AURORA         SUNNY     70  65  82 S9        29.90R
LEXINGTON      CLEAR     62  60  94 CALM      29.90S FOG
HOLDREGE       CLEAR     63  56  79 S3        29.90S
HEBRON         SUNNY     73  62  68 SW6       29.90S

...NEBRASKA PANHANDLE...

CITY           SKY/WX    TMP DP  RH WIND       PRES   REMARKS
CHADRON        MOCLDY    59  47  64 CALM      29.91R
ALLIANCE       MOCLDY    54  47  77 CALM      29.97R
SCOTTSBLUFF    PTCLDY    55  51  86 W6        29.98R
SIDNEY         CLEAR     61  43  51 W10       30.01R

...WESTERN AND NORTH CENTRAL NEBRASKA...

CITY           SKY/WX    TMP DP  RH WIND       PRES   REMARKS
VALENTINE      CLEAR     58  55  90 SW6       29.86R
AINSWORTH      CLEAR     64  60  85 SW5       29.86R
ONEILL         SUNNY     65  64  94 S6        29.86R
BROKEN BOW     CLEAR     64  61  90 CALM      29.89R
IMPERIAL       CLEAR     60  54  80 SW6       29.96R
NORTH PLATTE   CLEAR     60  57  89 CALM      29.91S
MCCOOK         CLEAR     62  57  83 CALM      29.91R

...EASTERN NEBRASKA...

CITY           SKY/WX    TMP DP  RH WIND       PRES   REMARKS
NORFOLK        SUNNY     67  66  97 SE5       29.87R FOG
SO SIOUX CITY  SUNNY     69  64  84 SE8       29.88R HAZE
TEKAMAH        SUNNY     71  69  93 SE9       29.89R
COLUMBUS       SUNNY     72  63  73 S3        29.89R
ALBION         SUNNY     67  62  83 SE3       29.88R
OMAHA EPPLEY   MOSUNNY   74  68  81 S14       29.92R
OFFUTT AFB     SUNNY     73  68  84 SE12      29.92R
MILLARD        SUNNY     72  69  89 SE8       29.91R
LINCOLN        SUNNY     73  68  84 S7        29.91R
NEBRASKA CITY  MOSUNNY   73  66  78 S13       29.95R
BEATRICE       SUNNY     73  66  80 S7        29.92R
FALLS CITY     LGT RAIN  72  68  87 SE10      29.97S

...NORTHERN KANSAS...

CITY           SKY/WX    TMP DP  RH WIND       PRES   REMARKS
GOODLAND       CLEAR     63  56  78 W6        29.98R
HILL CITY      CLEAR     72  57  59 SW7       29.93R
NORTON         SUNNY     64  55  72 CALM      29.92R
PHILLIPSBURG   CLEAR     73  59  60 CALM      29.92R
SMITH CENTER   CLEAR     68  61  77 CALM      29.92S
HAYS           CLEAR     73  55  53 S13       29.94R
RUSSELL        CLEAR     74  61  63 S16       29.93R
CONCORDIA      SUNNY     74  63  68 S15       29.92R
SALINA         PTSUNNY   77  62  59 S13       29.94R
TOPEKA         TSTM      73  68  84 S15G21    30.02R



USA.gov is the U.S. government's official web portal to all federal, state and local government web resources and services.